Time,TemperatureF,DewpointF,PressureIn,WindDirection,WindDirectionDegrees,WindSpeedMPH,WindSpeedGustMPH,Humidity,HourlyPrecipIn,Conditions,Clouds,dailyrainin,SoftwareType,DateUTC
2013-05-11 00:01:00,57.6,57.5,29.54,NE,45,0.0,2.0,100,0.00,,,0.00,Rainwise IP-100,2013-05-11 04:01:00,
2013-05-11 00:06:00,57.6,57.5,29.54,NE,45,1.0,1.0,100,0.00,,,0.00,Rainwise IP-100,2013-05-11 04:06:00,
2013-05-11 00:11:00,57.7,57.5,29.54,NE,45,1.0,2.0,100,0.00,,,0.00,Rainwise IP-100,2013-05-11 04:11:00,
2013-05-11 00:16:00,57.6,57.5,29.54,NE,45,0.0,2.0,100,0.00,,,0.00,Rainwise IP-100,2013-05-11 04:16:00,
2013-05-11 00:21:00,57.8,58.0,29.54,NE,45,0.0,1.0,100,0.00,,,0.00,Rainwise IP-100,2013-05-11 04:21:00,
2013-05-11 00:26:00,58.1,58.0,29.54,NE,45,0.0,1.0,100,0.00,,,0.00,Rainwise IP-100,2013-05-11 04:26:00,
2013-05-11 00:31:00,58.1,58.0,29.55,NE,45,1.0,1.0,100,0.00,,,0.00,Rainwise IP-100,2013-05-11 04:31:00,
2013-05-11 00:37:00,58.2,58.0,29.55,NE,45,0.0,1.0,100,0.00,,,0.00,Rainwise IP-100,2013-05-11 04:37:00,
2013-05-11 00:42:00,58.2,58.0,29.55,NE,45,1.0,1.0,100,0.00,,,0.00,Rainwise IP-100,2013-05-11 04:42:00,
2013-05-11 00:47:00,58.5,59.0,29.55,NE,45,1.0,1.0,100,0.00,,,0.00,Rainwise IP-100,2013-05-11 04:47:00,
2013-05-11 00:52:00,58.5,59.0,29.55,NE,45,0.0,2.0,100,0.00,,,0.00,Rainwise IP-100,2013-05-11 04:52:00,
2013-05-11 00:57:00,58.6,59.0,29.55,NE,45,1.0,2.0,100,0.00,,,0.00,Rainwise IP-100,2013-05-11 04:57:00,
2013-05-11 01:02:00,58.6,59.0,29.55,NE,45,0.0,1.0,100,0.06,,,0.01,Rainwise IP-100,2013-05-11 05:02:00,
2013-05-11 01:07:00,58.6,59.0,29.55,NE,45,0.0,0.0,100,0.06,,,0.01,Rainwise IP-100,2013-05-11 05:07:00,
2013-05-11 01:13:00,58.7,59.0,29.55,NE,45,0.0,1.0,100,0.00,,,0.01,Rainwise IP-100,2013-05-11 05:13:00,
2013-05-11 01:18:00,58.9,59.0,29.55,ESE,112,2.0,3.0,100,0.06,,,0.02,Rainwise IP-100,2013-05-11 05:18:00,
2013-05-11 01:23:00,59.0,59.0,29.55,SSE,157,0.0,5.0,100,0.06,,,0.02,Rainwise IP-100,2013-05-11 05:23:00,
2013-05-11 01:28:00,59.1,59.0,29.55,SSE,157,0.0,3.0,100,0.06,,,0.03,Rainwise IP-100,2013-05-11 05:28:00,
2013-05-11 01:33:00,59.5,59.5,29.54,SSE,157,0.0,3.0,100,0.06,,,0.03,Rainwise IP-100,2013-05-11 05:33:00,
2013-05-11 01:38:00,59.6,59.5,29.54,SSE,157,1.0,2.0,100,0.06,,,0.04,Rainwise IP-100,2013-05-11 05:38:00,
2013-05-11 01:43:00,59.6,59.5,29.54,SSE,157,2.0,3.0,100,0.06,,,0.04,Rainwise IP-100,2013-05-11 05:43:00,
2013-05-11 01:48:00,59.7,59.5,29.54,SSE,157,2.0,4.0,100,0.00,,,0.04,Rainwise IP-100,2013-05-11 05:48:00,
2013-05-11 01:54:00,59.8,60.0,29.53,SSE,157,2.0,5.0,100,0.00,,,0.04,Rainwise IP-100,2013-05-11 05:54:00,
2013-05-11 01:59:00,59.9,60.0,29.53,SSE,157,1.0,5.0,100,0.06,,,0.05,Rainwise IP-100,2013-05-11 05:59:00,
2013-05-11 02:04:00,59.9,60.0,29.52,South,180,0.0,4.0,100,0.06,,,0.05,Rainwise IP-100,2013-05-11 06:04:00,
2013-05-11 02:09:00,59.9,60.0,29.52,SSE,157,2.0,3.0,100,0.00,,,0.05,Rainwise IP-100,2013-05-11 06:09:00,
2013-05-11 02:14:00,59.7,59.5,29.52,SSE,157,2.0,4.0,100,0.00,,,0.05,Rainwise IP-100,2013-05-11 06:14:00,
2013-05-11 02:19:00,59.7,59.5,29.52,SE,135,2.0,5.0,100,0.00,,,0.05,Rainwise IP-100,2013-05-11 06:19:00,
2013-05-11 02:24:00,59.7,59.5,29.52,SE,135,2.0,4.0,100,0.00,,,0.05,Rainwise IP-100,2013-05-11 06:24:00,
2013-05-11 02:30:00,59.7,59.5,29.52,SSE,157,1.0,4.0,100,0.00,,,0.05,Rainwise IP-100,2013-05-11 06:30:00,
2013-05-11 02:35:00,59.7,59.5,29.51,SSE,157,0.0,5.0,100,0.00,,,0.05,Rainwise IP-100,2013-05-11 06:35:00,
2013-05-11 02:40:00,59.7,59.5,29.51,SSE,157,0.0,3.0,100,0.00,,,0.05,Rainwise IP-100,2013-05-11 06:40:00,
2013-05-11 02:45:00,59.7,59.5,29.51,SSE,157,2.0,3.0,100,0.00,,,0.05,Rainwise IP-100,2013-05-11 06:45:00,
2013-05-11 02:50:00,59.6,59.5,29.51,SSE,157,1.0,3.0,100,0.00,,,0.05,Rainwise IP-100,2013-05-11 06:50:00,
2013-05-11 02:55:00,59.6,59.5,29.51,SSE,157,2.0,4.0,100,0.00,,,0.05,Rainwise IP-100,2013-05-11 06:55:00,
2013-05-11 03:00:00,59.6,59.5,29.51,SE,135,0.0,4.0,100,0.00,,,0.05,Rainwise IP-100,2013-05-11 07:00:00,
2013-05-11 03:05:00,59.5,59.5,29.51,South,180,3.0,5.0,100,0.00,,,0.05,Rainwise IP-100,2013-05-11 07:05:00,
2013-05-11 03:06:00,59.5,59.5,29.51,South,180,2.0,5.0,100,0.00,,,0.05,Rainwise IP-100,2013-05-11 07:06:00,
2013-05-11 03:11:00,59.4,59.5,29.51,SSE,157,2.0,6.0,100,0.06,,,0.06,Rainwise IP-100,2013-05-11 07:11:00,
2013-05-11 03:16:00,59.4,59.5,29.51,SSE,157,0.0,4.0,100,0.06,,,0.06,Rainwise IP-100,2013-05-11 07:16:00,
2013-05-11 03:21:00,59.4,59.5,29.50,SSE,157,2.0,4.0,100,0.00,,,0.06,Rainwise IP-100,2013-05-11 07:21:00,
2013-05-11 03:27:00,59.3,59.5,29.50,SSE,157,0.0,3.0,100,0.06,,,0.07,Rainwise IP-100,2013-05-11 07:27:00,
2013-05-11 03:32:00,59.3,59.5,29.49,SSE,157,0.0,3.0,100,0.06,,,0.07,Rainwise IP-100,2013-05-11 07:32:00,
2013-05-11 03:37:00,59.3,59.5,29.49,SSE,157,1.0,3.0,100,0.00,,,0.07,Rainwise IP-100,2013-05-11 07:37:00,
2013-05-11 03:42:00,59.3,59.5,29.49,SSE,157,2.0,3.0,100,0.00,,,0.07,Rainwise IP-100,2013-05-11 07:42:00,
2013-05-11 03:47:00,59.3,59.5,29.49,SE,135,0.0,4.0,100,0.06,,,0.08,Rainwise IP-100,2013-05-11 07:47:00,
2013-05-11 03:52:00,59.3,59.5,29.49,SE,135,1.0,3.0,100,0.06,,,0.08,Rainwise IP-100,2013-05-11 07:52:00,
2013-05-11 03:57:00,59.3,59.5,29.49,SE,135,1.0,2.0,100,0.06,,,0.09,Rainwise IP-100,2013-05-11 07:57:00,
2013-05-11 04:02:00,59.3,59.5,29.49,SE,135,0.0,2.0,100,0.06,,,0.10,Rainwise IP-100,2013-05-11 08:02:00,
2013-05-11 04:08:00,59.3,59.5,29.48,SSE,157,2.0,5.0,100,0.06,,,0.10,Rainwise IP-100,2013-05-11 08:08:00,
2013-05-11 04:13:00,59.3,59.5,29.48,SSE,157,0.0,5.0,100,0.06,,,0.11,Rainwise IP-100,2013-05-11 08:13:00,
2013-05-11 04:18:00,59.3,59.5,29.48,SE,135,3.0,5.0,100,0.06,,,0.11,Rainwise IP-100,2013-05-11 08:18:00,
2013-05-11 04:23:00,59.4,59.5,29.47,SE,135,2.0,6.0,100,0.00,,,0.11,Rainwise IP-100,2013-05-11 08:23:00,
2013-05-11 04:28:00,59.5,59.5,29.47,SSE,157,4.0,5.0,100,0.06,,,0.12,Rainwise IP-100,2013-05-11 08:28:00,
2013-05-11 04:33:00,59.7,59.5,29.47,SSE,157,2.0,5.0,100,0.06,,,0.12,Rainwise IP-100,2013-05-11 08:33:00,
2013-05-11 04:38:00,59.7,59.5,29.47,SE,135,2.0,6.0,100,0.06,,,0.13,Rainwise IP-100,2013-05-11 08:38:00,
2013-05-11 04:44:00,59.7,59.5,29.47,SSE,157,1.0,4.0,100,0.06,,,0.13,Rainwise IP-100,2013-05-11 08:44:00,
2013-05-11 04:49:00,59.7,59.5,29.47,SSE,157,0.0,4.0,100,0.06,,,0.14,Rainwise IP-100,2013-05-11 08:49:00,
2013-05-11 04:54:00,59.7,59.5,29.47,SSE,157,1.0,4.0,100,0.06,,,0.14,Rainwise IP-100,2013-05-11 08:54:00,
2013-05-11 04:59:00,59.6,59.5,29.46,SSE,157,0.0,5.0,100,0.00,,,0.15,Rainwise IP-100,2013-05-11 08:59:00,
2013-05-11 05:04:00,59.6,59.5,29.46,SSE,157,3.0,5.0,100,0.06,,,0.15,Rainwise IP-100,2013-05-11 09:04:00,
2013-05-11 05:09:00,59.6,59.5,29.46,SE,135,2.0,5.0,100,0.12,,,0.16,Rainwise IP-100,2013-05-11 09:09:00,
2013-05-11 05:14:00,59.4,59.5,29.45,SE,135,1.0,5.0,100,0.12,,,0.17,Rainwise IP-100,2013-05-11 09:14:00,
2013-05-11 05:19:00,59.3,59.5,29.45,SE,135,1.0,3.0,100,0.06,,,0.18,Rainwise IP-100,2013-05-11 09:19:00,
2013-05-11 05:25:00,59.3,59.5,29.45,SE,135,1.0,4.0,100,0.06,,,0.18,Rainwise IP-100,2013-05-11 09:25:00,
2013-05-11 05:30:00,59.4,59.5,29.45,SE,135,2.0,7.0,100,0.00,,,0.18,Rainwise IP-100,2013-05-11 09:30:00,
2013-05-11 05:35:00,59.4,59.5,29.45,SSE,157,2.0,6.0,100,0.06,,,0.19,Rainwise IP-100,2013-05-11 09:35:00,
2013-05-11 05:40:00,59.3,59.5,29.45,SSE,157,2.0,4.0,100,0.12,,,0.20,Rainwise IP-100,2013-05-11 09:40:00,
2013-05-11 05:45:00,59.4,59.5,29.45,SE,135,1.0,5.0,100,0.06,,,0.20,Rainwise IP-100,2013-05-11 09:45:00,
2013-05-11 05:50:00,59.3,59.5,29.45,South,180,0.0,4.0,100,0.00,,,0.20,Rainwise IP-100,2013-05-11 09:50:00,
2013-05-11 05:55:00,59.3,59.5,29.45,SSE,157,1.0,6.0,100,0.00,,,0.20,Rainwise IP-100,2013-05-11 09:55:00,
2013-05-11 06:01:00,59.3,59.5,29.45,SSW,202,1.0,5.0,100,0.06,,,0.21,Rainwise IP-100,2013-05-11 10:01:00,
2013-05-11 06:06:00,59.3,59.5,29.45,SSE,157,1.0,5.0,100,0.06,,,0.21,Rainwise IP-100,2013-05-11 10:06:00,
2013-05-11 06:11:00,59.3,59.5,29.45,South,180,2.0,4.0,100,0.00,,,0.21,Rainwise IP-100,2013-05-11 10:11:00,
2013-05-11 06:16:00,59.3,59.5,29.45,SSE,157,4.0,6.0,100,0.00,,,0.21,Rainwise IP-100,2013-05-11 10:16:00,
2013-05-11 06:21:00,59.4,59.5,29.45,SSE,157,3.0,5.0,100,0.00,,,0.21,Rainwise IP-100,2013-05-11 10:21:00,
2013-05-11 06:26:00,59.4,59.5,29.45,SSE,157,4.0,6.0,100,0.00,,,0.21,Rainwise IP-100,2013-05-11 10:26:00,
2013-05-11 06:31:00,59.4,59.5,29.45,South,180,3.0,6.0,100,0.00,,,0.21,Rainwise IP-100,2013-05-11 10:31:00,
2013-05-11 06:36:00,59.4,59.5,29.45,SSE,157,3.0,5.0,100,0.00,,,0.21,Rainwise IP-100,2013-05-11 10:36:00,
2013-05-11 06:42:00,59.4,59.5,29.45,SE,135,3.0,5.0,100,0.00,,,0.21,Rainwise IP-100,2013-05-11 10:42:00,
2013-05-11 06:47:00,59.4,59.5,29.45,SE,135,1.0,6.0,100,0.00,,,0.21,Rainwise IP-100,2013-05-11 10:47:00,
2013-05-11 06:52:00,59.5,59.5,29.45,SE,135,1.0,5.0,100,0.00,,,0.21,Rainwise IP-100,2013-05-11 10:52:00,
2013-05-11 06:57:00,59.5,59.5,29.45,South,180,0.0,5.0,100,0.00,,,0.21,Rainwise IP-100,2013-05-11 10:57:00,
2013-05-11 07:02:00,59.6,59.5,29.45,SSE,157,1.0,6.0,100,0.00,,,0.21,Rainwise IP-100,2013-05-11 11:02:00,
2013-05-11 07:07:00,59.6,59.5,29.45,SSE,157,3.0,6.0,100,0.00,,,0.21,Rainwise IP-100,2013-05-11 11:07:00,
2013-05-11 07:12:00,59.6,59.5,29.45,SSE,157,1.0,6.0,100,0.00,,,0.21,Rainwise IP-100,2013-05-11 11:12:00,
2013-05-11 07:17:00,59.6,59.5,29.45,SSE,157,0.0,4.0,100,0.00,,,0.21,Rainwise IP-100,2013-05-11 11:17:00,
2013-05-11 07:23:00,59.7,59.5,29.45,SSE,157,2.0,4.0,100,0.00,,,0.21,Rainwise IP-100,2013-05-11 11:23:00,
2013-05-11 07:28:00,59.7,59.5,29.44,SSE,157,2.0,5.0,100,0.00,,,0.21,Rainwise IP-100,2013-05-11 11:28:00,
2013-05-11 07:33:00,59.8,60.0,29.44,SE,135,1.0,6.0,100,0.06,,,0.22,Rainwise IP-100,2013-05-11 11:33:00,
2013-05-11 07:38:00,59.9,60.0,29.44,SSE,157,2.0,4.0,100,0.06,,,0.22,Rainwise IP-100,2013-05-11 11:38:00,
2013-05-11 07:43:00,59.9,60.0,29.44,SSE,157,0.0,5.0,100,0.00,,,0.22,Rainwise IP-100,2013-05-11 11:43:00,
2013-05-11 07:48:00,60.0,60.0,29.44,SSE,157,2.0,4.0,100,0.00,,,0.22,Rainwise IP-100,2013-05-11 11:48:00,
2013-05-11 07:53:00,60.1,60.0,29.44,South,180,1.0,5.0,100,0.00,,,0.22,Rainwise IP-100,2013-05-11 11:53:00,
2013-05-11 07:58:00,60.4,60.5,29.44,SSE,157,3.0,6.0,100,0.00,,,0.22,Rainwise IP-100,2013-05-11 11:58:00,
2013-05-11 08:04:00,60.6,60.5,29.44,SE,135,2.0,6.0,100,0.00,,,0.22,Rainwise IP-100,2013-05-11 12:04:00,
2013-05-11 08:09:00,60.8,61.0,29.44,SSE,157,3.0,7.0,100,0.00,,,0.22,Rainwise IP-100,2013-05-11 12:09:00,
2013-05-11 08:14:00,61.0,61.0,29.44,SSE,157,4.0,6.0,100,0.00,,,0.22,Rainwise IP-100,2013-05-11 12:14:00,
2013-05-11 08:19:00,61.4,61.5,29.44,SSW,202,3.0,9.0,100,0.00,,,0.22,Rainwise IP-100,2013-05-11 12:19:00,
2013-05-11 08:24:00,61.5,61.5,29.45,SSE,157,7.0,10.0,100,0.00,,,0.22,Rainwise IP-100,2013-05-11 12:24:00,
2013-05-11 08:29:00,61.9,62.0,29.45,SSE,157,6.0,9.0,100,0.00,,,0.22,Rainwise IP-100,2013-05-11 12:29:00,
2013-05-11 08:34:00,62.2,62.0,29.45,SE,135,3.0,7.0,100,0.00,,,0.22,Rainwise IP-100,2013-05-11 12:34:00,
2013-05-11 08:40:00,62.4,62.5,29.45,SSW,202,6.0,6.0,100,0.00,,,0.22,Rainwise IP-100,2013-05-11 12:40:00,
2013-05-11 08:45:00,62.6,62.5,29.45,SE,135,1.0,7.0,100,0.00,,,0.22,Rainwise IP-100,2013-05-11 12:45:00,
2013-05-11 08:50:00,62.7,62.5,29.44,SE,135,5.0,9.0,100,0.00,,,0.22,Rainwise IP-100,2013-05-11 12:50:00,
2013-05-11 08:55:00,62.7,62.5,29.44,SSE,157,5.0,7.0,100,0.00,,,0.22,Rainwise IP-100,2013-05-11 12:55:00,
2013-05-11 09:00:00,62.8,63.0,29.44,SE,135,2.0,7.0,100,0.00,,,0.22,Rainwise IP-100,2013-05-11 13:00:00,
2013-05-11 09:05:00,63.1,63.0,29.44,SSE,157,3.0,6.0,100,0.00,,,0.22,Rainwise IP-100,2013-05-11 13:05:00,
2013-05-11 09:10:00,63.2,63.0,29.45,SSE,157,2.0,7.0,100,0.00,,,0.22,Rainwise IP-100,2013-05-11 13:10:00,
2013-05-11 09:15:00,63.3,63.5,29.44,South,180,2.0,7.0,100,0.00,,,0.22,Rainwise IP-100,2013-05-11 13:15:00,
2013-05-11 09:21:00,63.4,63.5,29.44,SSE,157,2.0,11.0,100,0.00,,,0.22,Rainwise IP-100,2013-05-11 13:21:00,
2013-05-11 09:26:00,63.7,63.5,29.44,South,180,3.0,6.0,100,0.00,,,0.22,Rainwise IP-100,2013-05-11 13:26:00,
2013-05-11 09:31:00,63.9,64.0,29.44,South,180,4.0,9.0,100,0.00,,,0.22,Rainwise IP-100,2013-05-11 13:31:00,
2013-05-11 09:36:00,64.4,64.5,29.44,SW,225,4.0,6.0,100,0.00,,,0.22,Rainwise IP-100,2013-05-11 13:36:00,
2013-05-11 09:41:00,64.4,64.5,29.45,SW,225,0.0,8.0,100,0.00,,,0.22,Rainwise IP-100,2013-05-11 13:41:00,
2013-05-11 09:46:00,64.3,64.5,29.45,SE,135,3.0,7.0,100,0.00,,,0.22,Rainwise IP-100,2013-05-11 13:46:00,
2013-05-11 09:51:00,64.3,64.5,29.45,South,180,3.0,6.0,100,0.00,,,0.22,Rainwise IP-100,2013-05-11 13:51:00,
2013-05-11 09:57:00,64.1,64.0,29.44,South,180,4.0,6.0,100,0.00,,,0.22,Rainwise IP-100,2013-05-11 13:57:00,
2013-05-11 10:02:00,64.1,64.0,29.44,SE,135,1.0,6.0,100,0.00,,,0.22,Rainwise IP-100,2013-05-11 14:02:00,
2013-05-11 10:07:00,64.4,64.5,29.44,SSE,157,5.0,7.0,100,0.00,,,0.22,Rainwise IP-100,2013-05-11 14:07:00,
2013-05-11 10:12:00,64.8,65.0,29.44,SE,135,5.0,9.0,100,0.00,,,0.22,Rainwise IP-100,2013-05-11 14:12:00,
2013-05-11 10:17:00,64.8,65.0,29.44,SE,135,3.0,9.0,100,0.00,,,0.22,Rainwise IP-100,2013-05-11 14:17:00,
2013-05-11 10:22:00,64.6,64.5,29.44,SSW,202,4.0,9.0,100,0.00,,,0.22,Rainwise IP-100,2013-05-11 14:22:00,
2013-05-11 10:27:00,64.6,64.5,29.44,SSE,157,3.0,6.0,100,0.00,,,0.22,Rainwise IP-100,2013-05-11 14:27:00,
2013-05-11 10:32:00,64.9,65.0,29.43,SE,135,5.0,7.0,100,0.00,,,0.22,Rainwise IP-100,2013-05-11 14:32:00,
2013-05-11 10:38:00,64.9,65.0,29.43,SE,135,4.0,7.0,100,0.00,,,0.22,Rainwise IP-100,2013-05-11 14:38:00,
2013-05-11 10:43:00,65.1,65.0,29.43,SE,135,4.0,9.0,100,0.00,,,0.22,Rainwise IP-100,2013-05-11 14:43:00,
2013-05-11 10:48:00,64.9,65.0,29.43,SE,135,6.0,9.0,100,0.00,,,0.22,Rainwise IP-100,2013-05-11 14:48:00,
2013-05-11 10:53:00,64.7,64.5,29.44,SE,135,6.0,7.0,100,0.00,,,0.22,Rainwise IP-100,2013-05-11 14:53:00,
2013-05-11 10:56:00,64.6,64.5,29.43,SSE,157,6.0,7.0,100,0.00,,,0.22,Rainwise IP-100,2013-05-11 14:56:00,
2013-05-11 11:01:00,64.8,65.0,29.43,SE,135,2.0,7.0,100,0.00,,,0.22,Rainwise IP-100,2013-05-11 15:01:00,
2013-05-11 11:06:00,65.0,65.0,29.43,SE,135,4.0,9.0,100,0.00,,,0.22,Rainwise IP-100,2013-05-11 15:06:00,
2013-05-11 11:11:00,65.4,65.5,29.43,South,180,4.0,6.0,100,0.00,,,0.22,Rainwise IP-100,2013-05-11 15:11:00,
2013-05-11 11:16:00,65.6,65.5,29.43,ESE,112,6.0,10.0,100,0.00,,,0.22,Rainwise IP-100,2013-05-11 15:16:00,
2013-05-11 11:21:00,65.5,65.5,29.43,SSE,157,4.0,9.0,100,0.00,,,0.22,Rainwise IP-100,2013-05-11 15:21:00,
2013-05-11 11:27:00,65.4,65.5,29.43,SE,135,1.0,9.0,100,0.00,,,0.22,Rainwise IP-100,2013-05-11 15:27:00,
2013-05-11 11:32:00,64.9,65.0,29.43,SE,135,3.0,9.0,100,0.00,,,0.22,Rainwise IP-100,2013-05-11 15:32:00,
2013-05-11 11:37:00,64.7,64.5,29.43,SSE,157,5.0,7.0,100,0.00,,,0.22,Rainwise IP-100,2013-05-11 15:37:00,
2013-05-11 11:42:00,64.7,64.5,29.43,South,180,2.0,6.0,100,0.00,,,0.22,Rainwise IP-100,2013-05-11 15:42:00,
2013-05-11 11:47:00,64.8,65.0,29.43,SSE,157,2.0,7.0,100,0.00,,,0.22,Rainwise IP-100,2013-05-11 15:47:00,
2013-05-11 11:52:00,64.9,65.0,29.43,SW,225,0.0,7.0,100,0.00,,,0.22,Rainwise IP-100,2013-05-11 15:52:00,
2013-05-11 11:57:00,65.4,65.5,29.43,SSE,157,1.0,7.0,100,0.00,,,0.22,Rainwise IP-100,2013-05-11 15:57:00,
2013-05-11 12:02:00,65.8,66.0,29.43,SE,135,4.0,9.0,100,0.00,,,0.22,Rainwise IP-100,2013-05-11 16:02:00,
2013-05-11 12:08:00,65.9,66.0,29.43,SE,135,4.0,8.0,100,0.00,,,0.22,Rainwise IP-100,2013-05-11 16:08:00,
2013-05-11 12:13:00,65.9,66.0,29.43,SSE,157,6.0,8.0,100,0.00,,,0.22,Rainwise IP-100,2013-05-11 16:13:00,
2013-05-11 12:18:00,66.0,66.0,29.42,ESE,112,0.0,6.0,100,0.00,,,0.22,Rainwise IP-100,2013-05-11 16:18:00,
2013-05-11 12:23:00,65.9,66.0,29.42,SSE,157,5.0,7.0,100,0.00,,,0.22,Rainwise IP-100,2013-05-11 16:23:00,
2013-05-11 12:28:00,65.7,65.5,29.42,SSE,157,5.0,9.0,100,0.00,,,0.22,Rainwise IP-100,2013-05-11 16:28:00,
2013-05-11 12:33:00,65.9,66.0,29.42,SSE,157,1.0,6.0,100,0.00,,,0.22,Rainwise IP-100,2013-05-11 16:33:00,
2013-05-11 12:38:00,66.1,66.0,29.42,SSE,157,3.0,6.0,100,0.00,,,0.22,Rainwise IP-100,2013-05-11 16:38:00,
2013-05-11 12:43:00,66.4,66.3,29.42,SSE,157,1.0,5.0,100,0.00,,,0.22,Rainwise IP-100,2013-05-11 16:43:00,
2013-05-11 12:49:00,66.4,66.3,29.42,SSE,157,0.0,6.0,100,0.00,,,0.22,Rainwise IP-100,2013-05-11 16:49:00,
2013-05-11 12:54:00,66.6,66.7,29.42,ESE,112,2.0,8.0,100,0.00,,,0.22,Rainwise IP-100,2013-05-11 16:54:00,
2013-05-11 12:59:00,66.3,66.3,29.42,SSW,202,2.0,6.0,100,0.00,,,0.22,Rainwise IP-100,2013-05-11 16:59:00,
2013-05-11 13:04:00,66.0,66.0,29.42,SE,135,1.0,6.0,100,0.00,,,0.22,Rainwise IP-100,2013-05-11 17:04:00,
2013-05-11 13:09:00,65.8,66.0,29.42,South,180,4.0,6.0,100,0.00,,,0.22,Rainwise IP-100,2013-05-11 17:09:00,
2013-05-11 13:14:00,65.7,65.5,29.42,South,180,1.0,6.0,100,0.00,,,0.22,Rainwise IP-100,2013-05-11 17:14:00,
2013-05-11 13:19:00,65.7,65.5,29.42,SSE,157,4.0,7.0,100,0.00,,,0.22,Rainwise IP-100,2013-05-11 17:19:00,
2013-05-11 13:25:00,65.9,66.0,29.41,SSE,157,1.0,7.0,100,0.00,,,0.22,Rainwise IP-100,2013-05-11 17:25:00,
2013-05-11 13:30:00,65.9,66.0,29.41,SSE,157,4.0,6.0,100,0.00,,,0.22,Rainwise IP-100,2013-05-11 17:30:00,
2013-05-11 13:35:00,65.5,65.5,29.41,South,180,2.0,5.0,100,0.00,,,0.22,Rainwise IP-100,2013-05-11 17:35:00,
2013-05-11 13:40:00,65.3,65.5,29.41,SE,135,3.0,7.0,100,0.00,,,0.22,Rainwise IP-100,2013-05-11 17:40:00,
2013-05-11 13:45:00,65.1,65.0,29.42,WSW,247,4.0,6.0,100,0.00,,,0.22,Rainwise IP-100,2013-05-11 17:45:00,
2013-05-11 13:50:00,64.9,65.0,29.42,SE,135,3.0,8.0,100,0.00,,,0.22,Rainwise IP-100,2013-05-11 17:50:00,
2013-05-11 13:55:00,65.0,65.0,29.41,SSE,157,1.0,5.0,100,0.00,,,0.22,Rainwise IP-100,2013-05-11 17:55:00,
2013-05-11 14:00:00,64.9,65.0,29.41,SSE,157,2.0,6.0,100,0.00,,,0.22,Rainwise IP-100,2013-05-11 18:00:00,
2013-05-11 14:06:00,65.2,65.0,29.41,South,180,5.0,7.0,100,0.06,,,0.23,Rainwise IP-100,2013-05-11 18:06:00,
2013-05-11 14:11:00,65.5,65.5,29.41,SSE,157,1.0,6.0,100,0.06,,,0.23,Rainwise IP-100,2013-05-11 18:11:00,
2013-05-11 14:16:00,66.1,66.0,29.41,SSE,157,1.0,6.0,100,0.00,,,0.23,Rainwise IP-100,2013-05-11 18:16:00,
2013-05-11 14:21:00,66.8,66.7,29.41,ESE,112,0.0,8.0,100,0.00,,,0.23,Rainwise IP-100,2013-05-11 18:21:00,
2013-05-11 14:26:00,66.9,67.0,29.41,South,180,1.0,6.0,100,0.00,,,0.23,Rainwise IP-100,2013-05-11 18:26:00,
2013-05-11 14:31:00,67.1,67.0,29.41,SSE,157,2.0,5.0,100,0.00,,,0.23,Rainwise IP-100,2013-05-11 18:31:00,
2013-05-11 14:36:00,67.1,67.0,29.41,SE,135,0.0,5.0,100,0.00,,,0.23,Rainwise IP-100,2013-05-11 18:36:00,
2013-05-11 14:42:00,67.3,67.5,29.40,SSE,157,2.0,4.0,100,0.00,,,0.23,Rainwise IP-100,2013-05-11 18:42:00,
2013-05-11 14:47:00,67.2,67.0,29.40,SSE,157,4.0,6.0,100,0.00,,,0.23,Rainwise IP-100,2013-05-11 18:47:00,
2013-05-11 14:52:00,67.5,67.5,29.40,SSW,202,4.0,8.0,100,0.00,,,0.23,Rainwise IP-100,2013-05-11 18:52:00,
2013-05-11 14:57:00,67.9,68.0,29.40,SSE,157,1.0,7.0,100,0.00,,,0.23,Rainwise IP-100,2013-05-11 18:57:00,
2013-05-11 15:02:00,68.4,68.5,29.40,ESE,112,2.0,6.0,100,0.00,,,0.23,Rainwise IP-100,2013-05-11 19:02:00,
2013-05-11 15:07:00,68.4,68.5,29.39,SSE,157,3.0,6.0,100,0.00,,,0.23,Rainwise IP-100,2013-05-11 19:07:00,
2013-05-11 15:12:00,68.2,68.0,29.39,SE,135,3.0,5.0,100,0.00,,,0.23,Rainwise IP-100,2013-05-11 19:12:00,
2013-05-11 15:17:00,68.1,68.0,29.40,SSW,202,1.0,6.0,100,0.00,,,0.23,Rainwise IP-100,2013-05-11 19:17:00,
2013-05-11 15:22:00,67.8,68.0,29.40,SE,135,2.0,6.0,100,0.00,,,0.23,Rainwise IP-100,2013-05-11 19:22:00,
2013-05-11 15:28:00,67.7,67.5,29.40,South,180,2.0,6.0,100,0.00,,,0.23,Rainwise IP-100,2013-05-11 19:28:00,
2013-05-11 15:33:00,67.3,67.5,29.40,SSE,157,3.0,6.0,100,0.00,,,0.23,Rainwise IP-100,2013-05-11 19:33:00,
2013-05-11 15:38:00,67.2,67.0,29.40,SSE,157,3.0,5.0,100,0.00,,,0.23,Rainwise IP-100,2013-05-11 19:38:00,
2013-05-11 15:43:00,66.9,67.0,29.40,SSE,157,1.0,6.0,100,0.00,,,0.23,Rainwise IP-100,2013-05-11 19:43:00,
2013-05-11 15:48:00,66.9,67.0,29.40,South,180,5.0,5.0,100,0.00,,,0.23,Rainwise IP-100,2013-05-11 19:48:00,
2013-05-11 15:53:00,66.9,67.0,29.40,SSE,157,3.0,6.0,100,0.00,,,0.23,Rainwise IP-100,2013-05-11 19:53:00,
2013-05-11 15:58:00,66.9,67.0,29.40,SSE,157,3.0,7.0,100,0.00,,,0.23,Rainwise IP-100,2013-05-11 19:58:00,
2013-05-11 16:03:00,67.0,67.0,29.40,South,180,4.0,7.0,100,0.00,,,0.23,Rainwise IP-100,2013-05-11 20:03:00,
2013-05-11 16:04:00,67.3,67.0,29.40,SE,135,5.0,5.0,99,0.00,,,0.23,Rainwise IP-100,2013-05-11 20:04:00,
2013-05-11 16:09:00,67.3,67.5,29.40,South,180,0.0,6.0,100,0.00,,,0.23,Rainwise IP-100,2013-05-11 20:09:00,
2013-05-11 16:14:00,67.3,67.5,29.40,South,180,5.0,6.0,100,0.00,,,0.23,Rainwise IP-100,2013-05-11 20:14:00,
2013-05-11 16:19:00,67.1,67.0,29.40,SE,135,3.0,7.0,100,0.00,,,0.23,Rainwise IP-100,2013-05-11 20:19:00,
2013-05-11 16:25:00,66.9,67.0,29.40,SSE,157,1.0,6.0,100,0.00,,,0.23,Rainwise IP-100,2013-05-11 20:25:00,
2013-05-11 16:30:00,66.8,66.7,29.41,SSE,157,1.0,4.0,100,0.00,,,0.23,Rainwise IP-100,2013-05-11 20:30:00,
2013-05-11 16:35:00,66.4,66.3,29.41,SSE,157,0.0,3.0,100,0.00,,,0.23,Rainwise IP-100,2013-05-11 20:35:00,
2013-05-11 16:40:00,66.4,66.3,29.41,South,180,0.0,5.0,100,0.00,,,0.23,Rainwise IP-100,2013-05-11 20:40:00,
2013-05-11 16:45:00,66.5,66.7,29.41,South,180,2.0,3.0,100,0.00,,,0.23,Rainwise IP-100,2013-05-11 20:45:00,
2013-05-11 16:50:00,66.6,66.7,29.41,NW,315,0.0,4.0,100,0.00,,,0.23,Rainwise IP-100,2013-05-11 20:50:00,
2013-05-11 16:55:00,66.5,66.3,29.41,SE,135,0.0,4.0,99,0.00,,,0.23,Rainwise IP-100,2013-05-11 20:55:00,
2013-05-11 17:00:00,66.6,66.7,29.41,ESE,112,1.0,3.0,100,0.00,,,0.23,Rainwise IP-100,2013-05-11 21:00:00,
2013-05-11 17:06:00,66.7,64.0,29.41,ESE,112,2.0,6.0,91,0.00,,,0.23,Rainwise IP-100,2013-05-11 21:06:00,
2013-05-11 17:11:00,66.9,65.0,29.41,SE,135,1.0,6.0,93,0.00,,,0.23,Rainwise IP-100,2013-05-11 21:11:00,
2013-05-11 17:16:00,67.1,64.0,29.41,SSE,157,1.0,6.0,89,0.00,,,0.23,Rainwise IP-100,2013-05-11 21:16:00,
2013-05-11 17:21:00,67.2,66.7,29.41,SSE,157,0.0,3.0,99,0.00,,,0.23,Rainwise IP-100,2013-05-11 21:21:00,
2013-05-11 17:26:00,66.9,66.0,29.41,SE,135,0.0,5.0,95,0.00,,,0.23,Rainwise IP-100,2013-05-11 21:26:00,
2013-05-11 17:31:00,66.9,66.0,29.41,SSE,157,2.0,4.0,95,0.00,,,0.23,Rainwise IP-100,2013-05-11 21:31:00,
2013-05-11 17:36:00,67.2,65.0,29.41,SSE,157,1.0,4.0,93,0.00,,,0.23,Rainwise IP-100,2013-05-11 21:36:00,
2013-05-11 17:42:00,67.4,63.0,29.41,SSE,157,2.0,7.0,86,0.00,,,0.23,Rainwise IP-100,2013-05-11 21:42:00,
2013-05-11 17:47:00,67.5,62.0,29.41,SSE,157,2.0,5.0,83,0.00,,,0.23,Rainwise IP-100,2013-05-11 21:47:00,
2013-05-11 17:52:00,67.4,63.0,29.42,ESE,112,0.0,5.0,86,0.00,,,0.23,Rainwise IP-100,2013-05-11 21:52:00,
2013-05-11 17:57:00,66.9,59.5,29.42,South,180,4.0,8.0,76,0.00,,,0.23,Rainwise IP-100,2013-05-11 21:57:00,
2013-05-11 18:02:00,66.6,59.5,29.42,ESE,112,5.0,6.0,77,0.00,,,0.23,Rainwise IP-100,2013-05-11 22:02:00,
2013-05-11 18:07:00,66.2,61.5,29.42,NE,45,1.0,7.0,85,0.00,,,0.23,Rainwise IP-100,2013-05-11 22:07:00,
2013-05-11 18:12:00,65.9,58.0,29.42,SSE,157,0.0,6.0,76,0.00,,,0.23,Rainwise IP-100,2013-05-11 22:12:00,
2013-05-11 18:17:00,65.8,60.0,29.43,ESE,112,0.0,6.0,82,0.00,,,0.23,Rainwise IP-100,2013-05-11 22:17:00,
2013-05-11 18:23:00,65.7,61.5,29.43,NE,45,0.0,4.0,88,0.00,,,0.23,Rainwise IP-100,2013-05-11 22:23:00,
2013-05-11 18:28:00,65.5,60.5,29.43,East,90,1.0,6.0,84,0.00,,,0.23,Rainwise IP-100,2013-05-11 22:28:00,
2013-05-11 18:33:00,65.2,60.0,29.43,SE,135,0.0,3.0,84,0.00,,,0.23,Rainwise IP-100,2013-05-11 22:33:00,
2013-05-11 18:38:00,65.1,59.5,29.43,East,90,0.0,7.0,82,0.00,,,0.23,Rainwise IP-100,2013-05-11 22:38:00,
2013-05-11 18:43:00,64.9,59.5,29.43,NE,45,0.0,2.0,83,0.00,,,0.23,Rainwise IP-100,2013-05-11 22:43:00,
2013-05-11 18:48:00,64.7,59.5,29.43,NE,45,1.0,0.0,84,0.00,,,0.23,Rainwise IP-100,2013-05-11 22:48:00,
2013-05-11 18:53:00,64.4,59.5,29.43,NE,45,0.0,3.0,84,0.00,,,0.23,Rainwise IP-100,2013-05-11 22:53:00,
2013-05-11 18:59:00,64.1,59.0,29.43,NE,45,1.0,2.0,84,0.00,,,0.23,Rainwise IP-100,2013-05-11 22:59:00,
2013-05-11 19:04:00,63.8,59.5,29.43,NE,45,0.0,1.0,85,0.00,,,0.23,Rainwise IP-100,2013-05-11 23:04:00,
2013-05-11 19:09:00,63.5,58.0,29.43,NE,45,0.0,1.0,83,0.00,,,0.23,Rainwise IP-100,2013-05-11 23:09:00,
2013-05-11 19:14:00,63.2,56.5,29.44,NW,315,0.0,3.0,79,0.00,,,0.23,Rainwise IP-100,2013-05-11 23:14:00,
2013-05-11 19:19:00,63.2,56.5,29.44,NNW,337,0.0,2.0,79,0.00,,,0.23,Rainwise IP-100,2013-05-11 23:19:00,
2013-05-11 19:24:00,62.9,55.0,29.44,ENE,67,1.0,2.0,75,0.00,,,0.23,Rainwise IP-100,2013-05-11 23:24:00,
2013-05-11 19:29:00,62.8,56.0,29.44,ENE,67,0.0,3.0,77,0.00,,,0.23,Rainwise IP-100,2013-05-11 23:29:00,
2013-05-11 19:34:00,62.6,54.0,29.45,SE,135,0.0,3.0,74,0.00,,,0.23,Rainwise IP-100,2013-05-11 23:34:00,
2013-05-11 19:40:00,62.3,54.5,29.45,ESE,112,2.0,6.0,75,0.00,,,0.23,Rainwise IP-100,2013-05-11 23:40:00,
2013-05-11 19:45:00,62.3,55.0,29.45,ESE,112,0.0,3.0,78,0.00,,,0.23,Rainwise IP-100,2013-05-11 23:45:00,
2013-05-11 19:50:00,61.9,54.5,29.45,North,360,0.0,5.0,76,0.00,,,0.23,Rainwise IP-100,2013-05-11 23:50:00,
2013-05-11 19:55:00,61.1,54.5,29.45,ENE,67,3.0,3.0,79,0.00,,,0.23,Rainwise IP-100,2013-05-11 23:55:00,
2013-05-11 20:00:00,60.9,54.5,29.45,East,90,1.0,4.0,80,0.00,,,0.23,Rainwise IP-100,2013-05-12 00:00:00,
2013-05-11 20:05:00,60.5,54.0,29.45,East,90,1.0,4.0,79,0.00,,,0.23,Rainwise IP-100,2013-05-12 00:05:00,
2013-05-11 20:10:00,60.3,54.0,29.45,NNW,337,0.0,2.0,80,0.00,,,0.23,Rainwise IP-100,2013-05-12 00:10:00,
2013-05-11 20:16:00,60.0,54.0,29.45,NNW,337,1.0,1.0,81,0.00,,,0.23,Rainwise IP-100,2013-05-12 00:16:00,
2013-05-11 20:21:00,59.8,54.0,29.45,SW,225,1.0,3.0,81,0.00,,,0.23,Rainwise IP-100,2013-05-12 00:21:00,
2013-05-11 20:26:00,59.7,54.0,29.45,East,90,2.0,2.0,82,0.00,,,0.23,Rainwise IP-100,2013-05-12 00:26:00,
2013-05-11 20:31:00,59.4,54.0,29.45,ESE,112,0.0,3.0,82,0.00,,,0.23,Rainwise IP-100,2013-05-12 00:31:00,
2013-05-11 20:36:00,58.9,54.0,29.46,ESE,112,2.0,2.0,83,0.00,,,0.23,Rainwise IP-100,2013-05-12 00:36:00,
2013-05-11 20:41:00,59.1,53.5,29.45,ESE,112,0.0,3.0,82,0.00,,,0.23,Rainwise IP-100,2013-05-12 00:41:00,
2013-05-11 20:46:00,59.2,54.0,29.45,ENE,67,2.0,2.0,84,0.00,,,0.23,Rainwise IP-100,2013-05-12 00:46:00,
2013-05-11 20:51:00,59.2,53.5,29.45,ENE,67,2.0,3.0,81,0.00,,,0.23,Rainwise IP-100,2013-05-12 00:51:00,
2013-05-11 20:57:00,59.1,53.5,29.45,ENE,67,0.0,3.0,82,0.06,,,0.24,Rainwise IP-100,2013-05-12 00:57:00,
2013-05-11 21:02:00,58.9,53.5,29.45,ENE,67,1.0,2.0,82,0.06,,,0.24,Rainwise IP-100,2013-05-12 01:02:00,
2013-05-11 21:07:00,58.8,54.0,29.45,ENE,67,0.0,3.0,84,0.00,,,0.24,Rainwise IP-100,2013-05-12 01:07:00,
2013-05-11 21:12:00,58.8,54.0,29.44,ENE,67,1.0,3.0,84,0.00,,,0.24,Rainwise IP-100,2013-05-12 01:12:00,
2013-05-11 21:17:00,58.9,54.5,29.45,ENE,67,1.0,3.0,86,0.00,,,0.24,Rainwise IP-100,2013-05-12 01:17:00,
2013-05-11 21:22:00,58.9,54.5,29.45,ENE,67,1.0,3.0,85,0.00,,,0.24,Rainwise IP-100,2013-05-12 01:22:00,
2013-05-11 21:27:00,58.7,54.5,29.45,ENE,67,0.0,2.0,85,0.00,,,0.24,Rainwise IP-100,2013-05-12 01:27:00,
2013-05-11 21:33:00,58.7,54.5,29.45,ENE,67,0.0,2.0,86,0.00,,,0.24,Rainwise IP-100,2013-05-12 01:33:00,
2013-05-11 21:38:00,58.6,54.5,29.45,ENE,67,1.0,2.0,86,0.00,,,0.24,Rainwise IP-100,2013-05-12 01:38:00,
2013-05-11 21:43:00,58.4,53.5,29.45,ENE,67,0.0,2.0,84,0.00,,,0.24,Rainwise IP-100,2013-05-12 01:43:00,
2013-05-11 21:48:00,58.4,53.5,29.45,ENE,67,1.0,2.0,84,0.00,,,0.24,Rainwise IP-100,2013-05-12 01:48:00,
2013-05-11 21:53:00,58.4,53.5,29.45,ESE,112,0.0,3.0,83,0.00,,,0.24,Rainwise IP-100,2013-05-12 01:53:00,
2013-05-11 21:58:00,58.4,53.5,29.45,ESE,112,0.0,0.0,84,0.00,,,0.24,Rainwise IP-100,2013-05-12 01:58:00,
2013-05-11 22:03:00,58.4,54.0,29.45,ESE,112,0.0,2.0,85,0.00,,,0.24,Rainwise IP-100,2013-05-12 02:03:00,
2013-05-11 22:08:00,58.3,53.5,29.45,ESE,112,0.0,1.0,84,0.00,,,0.24,Rainwise IP-100,2013-05-12 02:08:00,
2013-05-11 22:14:00,58.3,53.5,29.45,WNW,292,0.0,4.0,83,0.00,,,0.24,Rainwise IP-100,2013-05-12 02:14:00,
2013-05-11 22:19:00,58.3,52.0,29.45,ESE,112,0.0,3.0,79,0.00,,,0.24,Rainwise IP-100,2013-05-12 02:19:00,
2013-05-11 22:24:00,58.4,53.0,29.45,NNE,22,0.0,1.0,82,0.00,,,0.24,Rainwise IP-100,2013-05-12 02:24:00,
2013-05-11 22:29:00,58.3,53.0,29.45,South,180,0.0,6.0,81,0.00,,,0.24,Rainwise IP-100,2013-05-12 02:29:00,
2013-05-11 22:34:00,58.5,53.5,29.45,NNE,22,0.0,3.0,81,0.00,,,0.24,Rainwise IP-100,2013-05-12 02:34:00,
2013-05-11 22:39:00,58.4,52.0,29.45,NNW,337,2.0,5.0,80,0.00,,,0.24,Rainwise IP-100,2013-05-12 02:39:00,
2013-05-11 22:44:00,58.4,52.0,29.45,SE,135,2.0,6.0,79,0.00,,,0.24,Rainwise IP-100,2013-05-12 02:44:00,
2013-05-11 22:50:00,58.6,52.0,29.45,SW,225,0.0,9.0,78,0.00,,,0.24,Rainwise IP-100,2013-05-12 02:50:00,
2013-05-11 22:55:00,58.6,52.0,29.45,SW,225,0.0,6.0,77,0.00,,,0.24,Rainwise IP-100,2013-05-12 02:55:00,
2013-05-11 23:00:00,58.6,52.0,29.45,ENE,67,2.0,4.0,78,0.00,,,0.24,Rainwise IP-100,2013-05-12 03:00:00,
2013-05-11 23:05:00,58.4,51.0,29.45,NE,45,2.0,6.0,78,0.00,,,0.24,Rainwise IP-100,2013-05-12 03:05:00,
2013-05-11 23:10:00,58.3,51.0,29.45,NNE,22,1.0,3.0,78,0.00,,,0.24,Rainwise IP-100,2013-05-12 03:10:00,
2013-05-11 23:15:00,57.8,51.0,29.45,North,360,0.0,3.0,78,0.00,,,0.24,Rainwise IP-100,2013-05-12 03:15:00,
2013-05-11 23:20:00,57.5,50.5,29.45,NE,45,5.0,5.0,78,0.00,,,0.24,Rainwise IP-100,2013-05-12 03:20:00,
2013-05-11 23:25:00,57.5,50.5,29.45,SSW,202,0.0,6.0,78,0.00,,,0.24,Rainwise IP-100,2013-05-12 03:25:00,
2013-05-11 23:31:00,57.4,50.5,29.45,SE,135,4.0,5.0,78,0.00,,,0.24,Rainwise IP-100,2013-05-12 03:31:00,
2013-05-11 23:36:00,57.3,50.0,29.45,SW,225,1.0,7.0,76,0.00,,,0.24,Rainwise IP-100,2013-05-12 03:36:00,
2013-05-11 23:41:00,57.3,50.5,29.45,NW,315,1.0,5.0,77,0.00,,,0.24,Rainwise IP-100,2013-05-12 03:41:00,
2013-05-11 23:46:00,57.2,50.5,29.45,NE,45,0.0,2.0,78,0.00,,,0.24,Rainwise IP-100,2013-05-12 03:46:00,
2013-05-11 23:51:00,56.9,50.5,29.45,NE,45,0.0,2.0,79,0.00,,,0.24,Rainwise IP-100,2013-05-12 03:51:00,
2013-05-11 23:56:00,56.7,50.0,29.45,East,90,1.0,2.0,79,0.00,,,0.24,Rainwise IP-100,2013-05-12 03:56:00,